Location: ActonStarParty
(42.4766°N, 71.4538°W)
Time: 05:26:50
(UTC-04:00)

Lacrosse 5 - Pass Details

Date: 19 April 2018
Orbit: 713 x 726 km, 57.0° (Epoch: 17 September)

Event Time Altitude Azimuth Distance (km) Brightness Sun altitude
Rises 20:41:41 0° 298° (WNW) 3,144 7.3 -12.6°
Reaches altitude 10° 20:45:03 10° 320° (NW) 2,223 5.6 -13.2°
Maximum altitude 20:48:06 16° 357° (N) 1,863 4.4 -13.7°
Drops below altitude 10° 20:51:10 10° 34° (NE) 2,222 4.4 -14.2°
Sets 20:54:32 0° 57° (ENE) 3,142 4.9 -14.7°
